Location: Poughquag
(41.6090°N, 73.6820°W)
Time: 03:41:38
(UTC-04:00)

Vanguard 2 - Pass Details

Date: 07 June 2020
Orbit: 552 x 2938 km, 32.9° (Epoch: 06 July)

Event Time Altitude Azimuth Distance (km) Brightness Sun altitude
Rises 17:40:58 0° 241° (WSW) 6,784 13.1 28.2°
Reaches altitude 10° 17:45:47 10° 237° (WSW) 5,708 12.8 27.4°
Maximum altitude 18:01:53 52° 168° (SSE) 2,796 10.5 24.4°
Drops below altitude 10° 18:12:59 10° 96° (E) 4,052 10.7 22.3°
Sets 18:15:47 0° 91° (E) 4,759 11.0 21.8°
